Flag for Norway Weather past 2 weeks in Osøyro, Norway

Now
52 °F

Low clouds.


Feels Like: 51 °F
Forecast: 52 / 60 °F
Wind: 6 mph from West

Location: Bergen / Flesland

Current Time: Jul 7, 2015 at 12:18:18 AM

Latest Report: Jul 6, 2015 at 10:00 PM


Visibility: 7 mi

Pressure: 29.75 "Hg

Humidity: 95%

Dew point: 51 °F

Location of OsøyroLocation

Historic Weather in Osøyro — Graph

°F

Osøyro temperature yesterday

Maximum temperature yesterday: 56 °F (at 12:00 AM)
Minimum temperature yesterday: 52 °F (at 7:00 AM)
Average temperature yesterday: 54 °F

Past Weeks' High & Low Weather Summary

 TemperatureHumidityPressure
High82 °F (Jul 2, 5:00 PM)98% (Jun 29, 9:00 AM)30.29 "Hg (Jun 29, 9:00 AM)
Low46 °F (Jun 25, 4:00 AM)28% (Jul 2, 3:00 PM)29.70 "Hg (Jun 22, 8:00 PM)
Average57 °F79%30.00 "Hg
* Reported Jun 21 10:00 PM — Jul 6 10:00 PM, Osøyro, Weather by CustomWeather, © 2015

Note: Actual official high and low records may vary slightly from our data, if they occured in-between our weather recording intervals... More about our weather records

Advertising

Osøyro weather history for previous 24 hours

 ConditionsComfort  
Time TempWeatherWind HumidityBarometerVisibility
10:00 PM
Mon, Jul 6
52 °FLow clouds.6 mph95%29.75 "Hg7 mi
9:00 PM54 °FLow clouds.6 mph95%29.74 "Hg4 mi
8:00 PM54 °FLow clouds.7 mph93%29.74 "Hg13 mi
7:00 PM54 °FLow clouds.5 mph94%29.74 "Hg7 mi
6:00 PM54 °FLow clouds.6 mph93%29.73 "Hg9 mi
5:00 PM53 °FLow clouds.7 mph93%29.74 "Hg6 mi
4:00 PM54 °FLow clouds.7 mph94%29.74 "Hg8 mi
3:00 PM54 °FLow clouds.6 mph95%29.73 "Hg4 mi
2:00 PM54 °FRain showers. Low clouds.7 mph96%29.72 "Hg2 mi
1:00 PM54 °FLight rain. Low clouds.6 mph93%29.72 "Hg6 mi
12:00 PM54 °FOvercast.6 mph90%29.72 "Hg22 mi
11:00 AM54 °FLow clouds.3 mph95%29.72 "Hg14 mi
10:00 AM53 °FLow clouds.5 mph95%29.71 "Hg2 mi
9:00 AM53 °FOvercast.3 mph92%29.72 "Hg25 mi
8:00 AM53 °FOvercast.2 mph93%29.72 "Hg28 mi
7:00 AM52 °FLow clouds.3 mph96%29.73 "Hg25 mi
6:00 AM53 °FRain showers. Fog.1 mph95%29.74 "Hg3 mi
4:00 AM54 °FRain. Low clouds.2 mph97%29.77 "Hg4 mi
3:00 AM54 °FRain. Low clouds.5 mph97%29.78 "Hg4 mi
2:00 AM54 °FRain showers. Low clouds.3 mph97%29.78 "Hg4 mi
1:00 AM55 °FLow clouds.5 mph97%29.80 "Hg2 mi
12:00 AM56 °FLow clouds.3 mph97%29.83 "Hg1 mi
Weather by CustomWeather, © 2015

See weather overviewHow to use our weather pages